Orbital Elements at Epoch 2459200.5 (2020-Dec-17.0) TDB
Reference: JPL 30 (heliocentric ecliptic J2000)
Element | Value | Uncertainty (1-sigma) | Units |
e | .06320894882308749 | 4.2553e-08 | |
a | 2.324298227590733 | 8.0917e-09 | au |
q | 2.177381779873357 | 9.8207e-08 | au |
i | 5.264107360243088 | 4.7617e-06 | deg |
node | 332.8421782639118 | 3.5264e-05 | deg |
peri | 203.4510113534623 | 4.4981e-05 | deg |
M | 277.6118162948018 | 2.9037e-05 | deg |
tp | 2459496.709260119746 (2021-Oct-09.20926012) | 0.00010475 | TDB |
period | 1294.303732009331 3.54 | 6.7589e-06 1.85e-08 | d yr |
n | .2781418233578922 | 1.4525e-09 | deg/d |
Q | 2.471214675308109 | 8.6032e-09 | au |
|
| | Orbit Determination Parameters
Additional Information
|